FHMSA LFLL-LFKC

Flight info

Callsign FHMSA
Flight time 1h 6m
Altitude 19000
Route ROMAM T43 BEPER/N0274F230 DCT RETNO DCT KOLON DCT NARTI UP991 NIRDO
Aircraft PC12/L-SDFGRWY/S

Departure

Time 2026-04-17 12:45
Airport Lyon Saint-Exupéry Airport (LFLL)

Arrival

Time 2026-04-17 13:51
Airport Calvi Sainte Catherine Airport (LFKC)
Time Latitude Longitude Altitude Speed Heading
2026-04-17 12:17 45.72882 5.08193 784 ft 0 kts 355°
2026-04-17 12:39 45.72883 5.08193 784 ft 1 kts 357°
2026-04-17 12:39 45.72915 5.08213 784 ft 6 kts 65°
2026-04-17 12:39 45.72915 5.08335 786 ft 19 kts 121°
2026-04-17 12:39 45.72776 5.08362 787 ft 27 kts 173°
2026-04-17 12:40 45.72580 5.08386 792 ft 22 kts 174°
2026-04-17 12:40 45.72386 5.08406 794 ft 34 kts 172°
2026-04-17 12:40 45.72161 5.08436 798 ft 25 kts 176°
2026-04-17 12:40 45.71988 5.08460 798 ft 22 kts 163°
2026-04-17 12:41 45.71948 5.08574 801 ft 9 kts 88°
2026-04-17 12:41 45.71959 5.08721 805 ft 20 kts 79°
2026-04-17 12:41 45.71966 5.08834 807 ft 8 kts 87°
2026-04-17 12:41 45.72022 5.08918 807 ft 2 kts 359°
2026-04-17 12:44 45.72177 5.08899 801 ft 53 kts 355°
2026-04-17 12:44 45.72741 5.08830 814 ft 102 kts 353°
2026-04-17 12:45 45.73482 5.08727 1052 ft 115 kts 353°
2026-04-17 12:45 45.74315 5.08575 1409 ft 129 kts 355°
2026-04-17 12:45 45.75308 5.08485 1622 ft 145 kts 359°
2026-04-17 12:45 45.76302 5.08519 1778 ft 138 kts 359°
2026-04-17 12:46 45.77248 5.08397 1922 ft 137 kts 353°
2026-04-17 12:46 45.78246 5.08247 2145 ft 154 kts 354°
2026-04-17 12:46 45.79361 5.08091 2519 ft 166 kts 354°
2026-04-17 12:46 45.80529 5.07943 3053 ft 168 kts 356°
2026-04-17 12:47 45.81702 5.07889 3593 ft 177 kts 360°
2026-04-17 12:47 45.82865 5.08496 3978 ft 188 kts 44°
2026-04-17 12:47 45.83332 5.10279 4380 ft 206 kts 89°
2026-04-17 12:47 45.82815 5.12217 4788 ft 218 kts 129°
2026-04-17 12:48 45.81505 5.13246 5199 ft 219 kts 173°
2026-04-17 12:48 45.80011 5.13520 5565 ft 221 kts 157°
2026-04-17 12:48 45.78759 5.14782 5909 ft 224 kts 142°
2026-04-17 12:48 45.77489 5.16061 6281 ft 224 kts 152°
2026-04-17 12:49 45.76114 5.17083 6651 ft 222 kts 157°
2026-04-17 12:49 45.74728 5.18041 7006 ft 221 kts 156°
2026-04-17 12:49 45.73350 5.19039 7369 ft 222 kts 156°
2026-04-17 12:49 45.71935 5.19927 7729 ft 221 kts 167°
2026-04-17 12:50 45.70415 5.20198 8096 ft 221 kts 183°
2026-04-17 12:50 45.68879 5.20089 8458 ft 222 kts 185°
2026-04-17 12:50 45.67325 5.19994 8837 ft 224 kts 185°
2026-04-17 12:50 45.65758 5.19901 9221 ft 227 kts 184°
2026-04-17 12:51 45.64169 5.19796 9607 ft 230 kts 185°
2026-04-17 12:51 45.62564 5.19689 10000 ft 232 kts 185°
2026-04-17 12:51 45.60963 5.19586 10357 ft 234 kts 184°
2026-04-17 12:51 45.59322 5.19483 10717 ft 236 kts 185°
2026-04-17 12:52 45.57672 5.19375 11079 ft 238 kts 184°
2026-04-17 12:52 45.56012 5.19268 11446 ft 239 kts 185°
2026-04-17 12:52 45.54346 5.19161 11816 ft 240 kts 185°
2026-04-17 12:52 45.52672 5.19051 12192 ft 241 kts 184°
2026-04-17 12:53 45.50996 5.18944 12571 ft 242 kts 185°
2026-04-17 12:53 45.49311 5.18838 12955 ft 243 kts 186°
2026-04-17 12:53 45.47614 5.18729 13343 ft 244 kts 186°
2026-04-17 12:53 45.45935 5.18620 13728 ft 245 kts 185°
2026-04-17 12:54 45.44231 5.18511 14106 ft 245 kts 185°
2026-04-17 12:54 45.42522 5.18403 14456 ft 246 kts 185°
2026-04-17 12:54 45.40809 5.18292 14812 ft 246 kts 185°
2026-04-17 12:54 45.39112 5.18183 15167 ft 242 kts 185°
2026-04-17 12:55 45.37430 5.18077 15527 ft 243 kts 186°
2026-04-17 12:55 45.35747 5.17969 15890 ft 245 kts 186°
2026-04-17 12:55 45.34038 5.17858 16261 ft 246 kts 185°
2026-04-17 12:55 45.32322 5.17747 16639 ft 247 kts 186°
2026-04-17 12:56 45.30593 5.17638 17020 ft 249 kts 186°
2026-04-17 12:56 45.28854 5.17529 17405 ft 251 kts 186°
2026-04-17 12:56 45.27107 5.17418 17794 ft 252 kts 186°
2026-04-17 12:56 45.25357 5.17304 18189 ft 252 kts 185°
2026-04-17 12:57 45.23597 5.17192 18570 ft 253 kts 186°
2026-04-17 12:57 45.21837 5.17082 18915 ft 253 kts 185°
2026-04-17 12:57 45.20033 5.16966 18923 ft 267 kts 185°
2026-04-17 12:57 45.18142 5.16841 18941 ft 275 kts 185°
2026-04-17 12:58 45.16249 5.16724 19153 ft 273 kts 185°
2026-04-17 12:58 45.14329 5.16603 19168 ft 279 kts 185°
2026-04-17 12:58 45.12400 5.16480 19169 ft 283 kts 185°
2026-04-17 12:58 45.10421 5.16363 19169 ft 285 kts 184°
2026-04-17 12:59 45.08436 5.16538 19166 ft 286 kts 178°
2026-04-17 12:59 45.06444 5.16778 19163 ft 288 kts 178°
2026-04-17 12:59 45.04445 5.17000 19162 ft 289 kts 178°
2026-04-17 12:59 45.02438 5.17218 19155 ft 289 kts 178°
2026-04-17 13:00 45.00425 5.17443 19152 ft 290 kts 178°
2026-04-17 13:00 44.98417 5.17668 19160 ft 290 kts 178°
2026-04-17 13:00 44.96402 5.17892 19161 ft 290 kts 179°
2026-04-17 13:00 44.94414 5.18113 19159 ft 290 kts 178°
2026-04-17 13:01 44.92402 5.18338 19165 ft 290 kts 178°
2026-04-17 13:01 44.90402 5.18560 19161 ft 284 kts 179°
2026-04-17 13:01 44.88425 5.18780 19157 ft 286 kts 179°
2026-04-17 13:01 44.86428 5.18998 19150 ft 288 kts 178°
2026-04-17 13:02 44.84428 5.19221 19149 ft 289 kts 178°
2026-04-17 13:02 44.82425 5.19445 19148 ft 289 kts 179°
2026-04-17 13:02 44.80413 5.19667 19151 ft 290 kts 178°
2026-04-17 13:02 44.78407 5.19888 19150 ft 290 kts 178°
2026-04-17 13:03 44.76394 5.20111 19150 ft 289 kts 178°
2026-04-17 13:03 44.74384 5.20335 19148 ft 290 kts 178°
2026-04-17 13:03 44.72376 5.20555 19146 ft 289 kts 178°
2026-04-17 13:03 44.70369 5.20776 19145 ft 289 kts 178°
2026-04-17 13:04 44.68385 5.20997 19143 ft 290 kts 178°
2026-04-17 13:04 44.66372 5.21218 19142 ft 290 kts 178°
2026-04-17 13:04 44.64387 5.21721 19118 ft 294 kts 160°
2026-04-17 13:04 44.62675 5.23301 19119 ft 298 kts 136°
2026-04-17 13:05 44.61289 5.25451 19128 ft 297 kts 132°
2026-04-17 13:05 44.59940 5.27655 19128 ft 297 kts 131°
2026-04-17 13:05 44.58587 5.29831 19133 ft 297 kts 132°
2026-04-17 13:05 44.57208 5.32004 19132 ft 297 kts 133°
2026-04-17 13:06 44.55834 5.34177 19132 ft 297 kts 132°
2026-04-17 13:06 44.54490 5.36315 19127 ft 296 kts 132°
2026-04-17 13:06 44.53128 5.38480 19131 ft 296 kts 132°
2026-04-17 13:06 44.51764 5.40642 19128 ft 296 kts 132°
2026-04-17 13:07 44.50399 5.42801 19124 ft 295 kts 132°
2026-04-17 13:07 44.49041 5.44950 19128 ft 294 kts 132°
2026-04-17 13:07 44.47684 5.47093 19115 ft 295 kts 132°
2026-04-17 13:07 44.46328 5.49239 19120 ft 295 kts 132°
2026-04-17 13:08 44.44964 5.51393 19120 ft 295 kts 132°
2026-04-17 13:08 44.43602 5.53540 19120 ft 295 kts 132°
2026-04-17 13:08 44.42242 5.55683 19119 ft 295 kts 132°
2026-04-17 13:08 44.40896 5.57804 19119 ft 295 kts 132°
2026-04-17 13:09 44.39532 5.59952 19127 ft 295 kts 132°
2026-04-17 13:09 44.38171 5.62100 19124 ft 295 kts 131°
2026-04-17 13:09 44.36979 5.64435 19117 ft 295 kts 124°
2026-04-17 13:09 44.35845 5.66821 19118 ft 295 kts 124°
2026-04-17 13:10 44.34696 5.69197 19118 ft 295 kts 124°
2026-04-17 13:10 44.33537 5.71572 19120 ft 295 kts 124°
2026-04-17 13:10 44.32384 5.73945 19117 ft 295 kts 124°
2026-04-17 13:10 44.31232 5.76319 19117 ft 295 kts 124°
2026-04-17 13:11 44.30077 5.78697 19115 ft 295 kts 124°
2026-04-17 13:11 44.28923 5.81067 19113 ft 295 kts 124°
2026-04-17 13:11 44.27769 5.83437 19116 ft 295 kts 124°
2026-04-17 13:11 44.26614 5.85806 19114 ft 295 kts 124°
2026-04-17 13:12 44.25461 5.88170 19113 ft 295 kts 124°
2026-04-17 13:12 44.23165 5.92872 19110 ft 294 kts 124°
2026-04-17 13:12 44.22013 5.95230 19112 ft 295 kts 124°
2026-04-17 13:13 44.20857 5.97593 19112 ft 295 kts 124°
2026-04-17 13:13 44.19698 5.99955 19112 ft 295 kts 124°
2026-04-17 13:13 44.18543 6.02313 19113 ft 295 kts 124°
2026-04-17 13:13 44.17386 6.04673 19112 ft 295 kts 124°
2026-04-17 13:14 44.16227 6.07033 19116 ft 295 kts 124°
2026-04-17 13:14 44.15069 6.09390 19119 ft 295 kts 124°
2026-04-17 13:14 44.13909 6.11748 19118 ft 296 kts 124°
2026-04-17 13:14 44.12743 6.14117 19117 ft 296 kts 124°
2026-04-17 13:15 44.11581 6.16476 19116 ft 296 kts 124°
2026-04-17 13:15 44.10411 6.18850 19118 ft 296 kts 124°
2026-04-17 13:15 44.09243 6.21215 19118 ft 296 kts 124°
2026-04-17 13:15 44.08079 6.23575 19118 ft 296 kts 124°
2026-04-17 13:16 44.06913 6.25935 19128 ft 296 kts 124°
2026-04-17 13:16 44.05745 6.28297 19127 ft 297 kts 124°
2026-04-17 13:16 44.04588 6.30633 19124 ft 297 kts 124°
2026-04-17 13:16 44.03417 6.32996 19123 ft 296 kts 124°
2026-04-17 13:17 44.02250 6.35352 19122 ft 296 kts 124°
2026-04-17 13:17 44.01083 6.37704 19122 ft 295 kts 124°
2026-04-17 13:17 43.99917 6.40052 19127 ft 296 kts 124°
2026-04-17 13:17 43.98746 6.42408 19126 ft 296 kts 124°
2026-04-17 13:18 43.97577 6.44759 19125 ft 296 kts 124°
2026-04-17 13:18 43.96408 6.47108 19128 ft 295 kts 124°
2026-04-17 13:18 43.95239 6.49452 19126 ft 295 kts 124°
2026-04-17 13:18 43.94074 6.51791 19125 ft 294 kts 124°
2026-04-17 13:19 43.92909 6.54125 19120 ft 294 kts 124°
2026-04-17 13:19 43.91741 6.56464 19122 ft 294 kts 124°
2026-04-17 13:19 43.90573 6.58802 19122 ft 294 kts 124°
2026-04-17 13:19 43.89406 6.61134 19123 ft 294 kts 124°
2026-04-17 13:20 43.88254 6.63435 19122 ft 294 kts 124°
2026-04-17 13:20 43.87087 6.65764 19119 ft 293 kts 124°
2026-04-17 13:20 43.85925 6.68083 19118 ft 293 kts 124°
2026-04-17 13:20 43.84761 6.70404 19120 ft 294 kts 124°
2026-04-17 13:21 43.83597 6.72722 19118 ft 293 kts 124°
2026-04-17 13:21 43.82431 6.75042 19113 ft 294 kts 124°
2026-04-17 13:21 43.81261 6.77368 19116 ft 295 kts 123°
2026-04-17 13:21 43.80090 6.79693 19113 ft 293 kts 124°
2026-04-17 13:22 43.78922 6.82013 19118 ft 294 kts 123°
2026-04-17 13:22 43.77753 6.84332 19124 ft 293 kts 124°
2026-04-17 13:22 43.76585 6.86645 19128 ft 293 kts 124°
2026-04-17 13:22 43.75417 6.88957 19128 ft 293 kts 124°
2026-04-17 13:23 43.74249 6.91271 19130 ft 293 kts 124°
2026-04-17 13:23 43.73079 6.93585 19131 ft 293 kts 124°
2026-04-17 13:23 43.71884 6.95856 19130 ft 292 kts 129°
2026-04-17 13:23 43.70554 6.97983 19131 ft 292 kts 130°
2026-04-17 13:24 43.69220 7.00103 19130 ft 293 kts 130°
2026-04-17 13:24 43.67891 7.02242 19133 ft 293 kts 130°
2026-04-17 13:24 43.66563 7.04381 19131 ft 293 kts 130°
2026-04-17 13:24 43.65232 7.06516 19136 ft 293 kts 129°
2026-04-17 13:25 43.64350 7.07927 19138 ft 293 kts 130°
2026-04-17 13:25 43.63017 7.10060 19141 ft 293 kts 130°
2026-04-17 13:25 43.61686 7.12190 19140 ft 293 kts 130°
2026-04-17 13:25 43.59917 7.15019 19141 ft 293 kts 130°
2026-04-17 13:26 43.58586 7.17146 19114 ft 293 kts 130°
2026-04-17 13:26 43.57684 7.18585 19114 ft 293 kts 130°
2026-04-17 13:26 43.56353 7.20708 19115 ft 293 kts 130°
2026-04-17 13:26 43.55066 7.22834 19111 ft 292 kts 124°
2026-04-17 13:27 43.54149 7.25310 19107 ft 290 kts 112°
2026-04-17 13:27 43.53332 7.27853 19110 ft 291 kts 112°
2026-04-17 13:27 43.52496 7.30390 19112 ft 291 kts 113°
2026-04-17 13:27 43.51657 7.32928 19113 ft 291 kts 113°
2026-04-17 13:28 43.50823 7.35465 19114 ft 291 kts 113°
2026-04-17 13:28 43.49987 7.38007 19115 ft 291 kts 113°
2026-04-17 13:28 43.49152 7.40542 19116 ft 291 kts 113°
2026-04-17 13:28 43.48314 7.43080 19118 ft 291 kts 113°
2026-04-17 13:29 43.47476 7.45618 19120 ft 291 kts 113°
2026-04-17 13:29 43.46637 7.48156 19121 ft 291 kts 113°
2026-04-17 13:29 43.45799 7.50691 19120 ft 291 kts 113°
2026-04-17 13:29 43.44957 7.53232 19121 ft 291 kts 113°
2026-04-17 13:30 43.44116 7.55769 19118 ft 291 kts 113°
2026-04-17 13:30 43.43275 7.58303 19123 ft 291 kts 113°
2026-04-17 13:30 43.42433 7.60837 19117 ft 291 kts 113°
2026-04-17 13:30 43.41600 7.63346 19117 ft 291 kts 113°
2026-04-17 13:31 43.40758 7.65875 19120 ft 291 kts 113°
2026-04-17 13:31 43.39915 7.68408 19120 ft 291 kts 113°
2026-04-17 13:31 43.39072 7.70939 19120 ft 291 kts 113°
2026-04-17 13:31 43.38228 7.73466 19120 ft 291 kts 113°
2026-04-17 13:32 43.37383 7.75997 19120 ft 291 kts 113°
2026-04-17 13:32 43.36539 7.78523 19120 ft 291 kts 113°
2026-04-17 13:32 43.35693 7.81049 19120 ft 291 kts 113°
2026-04-17 13:32 43.34848 7.83573 19120 ft 291 kts 113°
2026-04-17 13:33 43.34002 7.86099 19120 ft 291 kts 113°
2026-04-17 13:33 43.33154 7.88625 19120 ft 291 kts 113°
2026-04-17 13:33 43.32308 7.91144 19120 ft 291 kts 113°
2026-04-17 13:33 43.31471 7.93633 19120 ft 291 kts 113°
2026-04-17 13:34 43.30622 7.96156 19120 ft 291 kts 113°
2026-04-17 13:34 43.29773 7.98677 19122 ft 291 kts 113°
2026-04-17 13:34 43.28924 8.01198 19122 ft 291 kts 113°
2026-04-17 13:34 43.28072 8.03723 19123 ft 291 kts 113°
2026-04-17 13:35 43.27219 8.06248 19125 ft 291 kts 113°
2026-04-17 13:35 43.26366 8.08770 19125 ft 291 kts 113°
2026-04-17 13:35 43.25511 8.11298 19111 ft 292 kts 113°
2026-04-17 13:35 43.24656 8.13822 19111 ft 291 kts 113°
2026-04-17 13:36 43.23801 8.16344 19110 ft 291 kts 113°
2026-04-17 13:36 43.22947 8.18861 19114 ft 291 kts 113°
2026-04-17 13:36 43.22094 8.21376 19111 ft 291 kts 113°
2026-04-17 13:36 43.21248 8.23863 19112 ft 291 kts 113°
2026-04-17 13:37 43.20392 8.26378 19110 ft 291 kts 114°
2026-04-17 13:37 43.19531 8.28909 18995 ft 295 kts 114°
2026-04-17 13:37 43.18655 8.31476 18839 ft 297 kts 114°
2026-04-17 13:37 43.17778 8.34047 18684 ft 298 kts 114°
2026-04-17 13:38 43.16899 8.36622 18538 ft 299 kts 114°
2026-04-17 13:38 43.16018 8.39199 18378 ft 299 kts 114°
2026-04-17 13:38 43.15131 8.41792 18051 ft 303 kts 114°
2026-04-17 13:38 43.14126 8.44311 17783 ft 301 kts 124°
2026-04-17 13:39 43.12869 8.46616 17395 ft 303 kts 126°
2026-04-17 13:39 43.11604 8.48949 16914 ft 305 kts 125°
2026-04-17 13:39 43.10354 8.51287 16409 ft 303 kts 125°
2026-04-17 13:39 43.09112 8.53603 15914 ft 301 kts 125°
2026-04-17 13:40 43.07889 8.55873 15433 ft 301 kts 125°
2026-04-17 13:40 43.06647 8.58175 14954 ft 301 kts 125°
2026-04-17 13:40 43.05417 8.60454 14480 ft 290 kts 125°
2026-04-17 13:40 43.04239 8.62637 13980 ft 287 kts 125°
2026-04-17 13:41 43.03039 8.64861 13326 ft 290 kts 125°
2026-04-17 13:41 43.01852 8.67060 12685 ft 285 kts 125°
2026-04-17 13:41 43.00678 8.69233 12053 ft 282 kts 126°
2026-04-17 13:41 42.99514 8.71379 11389 ft 281 kts 126°
2026-04-17 13:42 42.98364 8.73498 10668 ft 274 kts 126°
2026-04-17 13:42 42.97233 8.75584 9951 ft 272 kts 126°
2026-04-17 13:42 42.96102 8.77574 9172 ft 267 kts 133°
2026-04-17 13:42 42.94537 8.78881 8302 ft 265 kts 161°
2026-04-17 13:43 42.92738 8.79216 7319 ft 259 kts 180°
2026-04-17 13:43 42.90941 8.79199 6359 ft 256 kts 181°
2026-04-17 13:43 42.89173 8.79184 5596 ft 252 kts 180°
2026-04-17 13:43 42.87406 8.79194 4981 ft 253 kts 179°
2026-04-17 13:44 42.85650 8.79198 4353 ft 251 kts 179°
2026-04-17 13:44 42.83914 8.79193 3749 ft 248 kts 179°
2026-04-17 13:44 42.82198 8.79191 3209 ft 244 kts 179°
2026-04-17 13:44 42.80515 8.79196 3011 ft 240 kts 179°
2026-04-17 13:45 42.78840 8.79196 3015 ft 241 kts 179°
2026-04-17 13:45 42.77154 8.79195 3013 ft 242 kts 179°
2026-04-17 13:45 42.75503 8.79201 3006 ft 230 kts 179°
2026-04-17 13:45 42.73951 8.79210 2875 ft 215 kts 179°
2026-04-17 13:46 42.72493 8.79217 2732 ft 210 kts 179°
2026-04-17 13:46 42.71012 8.79224 2604 ft 213 kts 179°
2026-04-17 13:46 42.69545 8.79226 2447 ft 207 kts 179°
2026-04-17 13:46 42.68127 8.79200 2206 ft 207 kts 180°
2026-04-17 13:47 42.66700 8.79195 1923 ft 193 kts 180°
2026-04-17 13:47 42.65452 8.79154 1853 ft 171 kts 181°
2026-04-17 13:47 42.64319 8.79109 1649 ft 153 kts 180°
2026-04-17 13:47 42.63309 8.79127 1467 ft 135 kts 178°
2026-04-17 13:48 42.62436 8.79178 1340 ft 121 kts 175°
2026-04-17 13:48 42.61624 8.79231 1229 ft 108 kts 179°
2026-04-17 13:48 42.60895 8.79244 1135 ft 106 kts 179°
2026-04-17 13:48 42.60183 8.79246 1047 ft 99 kts 180°
2026-04-17 13:49 42.59503 8.79250 963 ft 97 kts 178°
2026-04-17 13:49 42.58820 8.79242 938 ft 99 kts 180°
2026-04-17 13:49 42.58136 8.79249 917 ft 100 kts 179°
2026-04-17 13:49 42.57439 8.79237 864 ft 101 kts 179°
2026-04-17 13:50 42.56737 8.79236 793 ft 100 kts 181°
2026-04-17 13:50 42.56016 8.79251 596 ft 103 kts 177°
2026-04-17 13:50 42.55296 8.79254 444 ft 105 kts 176°
2026-04-17 13:50 42.54564 8.79285 285 ft 103 kts 179°
2026-04-17 13:51 42.53868 8.79297 134 ft 93 kts 180°
2026-04-17 13:51 42.53349 8.79299 165 ft 55 kts 180°
2026-04-17 13:51 42.52951 8.79298 192 ft 56 kts 179°
2026-04-17 13:51 42.52674 8.79301 212 ft 41 kts 181°
2026-04-17 13:52 42.52448 8.79291 227 ft 14 kts 217°
2026-04-17 13:52 42.52430 8.79170 227 ft 2 kts 240°
2026-04-17 13:52 42.52421 8.79083 228 ft 20 kts 256°
2026-04-17 13:52 42.52411 8.79036 228 ft 0 kts 253°